Regional Weather Roundup
Issued by NWS

Home | Current Version | Previous Version | Graphics & Text | Print | Product List | Glossary On
Versions: 1 2 3 4 5 6 7 8 9 10 11 12 13 14 15 16 17 18 19 20 21 22 23 24 25 26 27 28 29 30 31 32 33 34 35 36 37 38 39 40 41 42 43 44 45 46 47 48 49 50
000
ASUS43 KLSX 180757
RWRMO

WEATHER SUMMARY FOR MISSOURI
NATIONAL WEATHER SERVICE SPRINGFIELD MO
200 AM CST WED JAN 18 2017

NOTE: "FAIR" INDICATES FEW OR NO CLOUDS BELOW 12,000 FEET WITH NO
       SIGNIFICANT WEATHER AND/OR OBSTRUCTIONS TO VISIBILITY.
       CURRENT SKY AND/OR WEATHER CONDITIONS ARE NOT AVAILABLE FOR
       CHILLICOTHE AND FARMINGTON.

MOZ001>031-035>038-043-044-053-054-180900-
...NORTHERN AND WESTERN MISSOURI...

CITY           SKY/WX    TMP DP  RH WIND       PRES   REMARKS
KANSAS CTY INT CLOUDY    30  27  88 S9        30.15S FOG     WCI  22
LEE`S SUMMIT   CLOUDY    33  32  96 SW8       30.17R WCI  26
ST JOSEPH      FOG       28  28 100 CALM      30.16S VSB 1/4
CHILLICOTHE      N/A     33  31  92 CALM      30.18R
KIRKSVILLE     CLOUDY    32  29  88 CALM      30.16R

$$
MOZ066>068-077>081-088>096-101>105-180900-
...SOUTHWEST MISSOURI...

CITY           SKY/WX    TMP DP  RH WIND       PRES   REMARKS
SPRINGFIELD    FOG       37  36  96 CALM      30.15F VSB 1
JOPLIN         MOCLDY    36  35  96 E3        30.16S

$$
MOZ032>034-039>042-045>050-055>058-069>072-180900-
...CENTRAL MISSOURI...

CITY           SKY/WX    TMP DP  RH WIND       PRES   REMARKS
COLUMBIA       NOT AVBL
JEFFERSON CITY CLOUDY    38  32  79 W7        30.21S
ROLLA          CLOUDY    36  35  96 W9        30.17S WCI  29
SEDALIA        CLOUDY    38  35  89 SW6       30.20S
WARRENSBURG    CLOUDY    36  34  93 S10       30.19S WCI  28

$$
MOZ051-052-059>065-180900-
...EAST CENTRAL MISSOURI...

CITY           SKY/WX    TMP DP  RH WIND       PRES   REMARKS
ST LOUIS INTL  CLOUDY    41  34  76 W13       30.19R

$$
MOZ072>076-082>087-097>100-106>115-180900-
...SOUTH CENTRAL AND SOUTHEAST MISSOURI...

CITY           SKY/WX    TMP DP  RH WIND       PRES   REMARKS
CAPE GIRARDEAU CLOUDY    43  37  79 N5        30.18F
POPLAR BLUFF   CLOUDY    43  38  82 N9        30.19R
WEST PLAINS    CLOUDY    37  36  96 NW5       30.17F

$$



USA.gov is the U.S. government's official web portal to all federal, state and local government web resources and services.